My Profile
  1. Member Settings
  2. My Devices
  3. Sign Out
        More Settings
      Elev 43 ft, 29.998 °N 81.452 °W

      World Golf Village, FL

      Summary

      Temperature (°F)MaxAverageMin
      Max Temperature9486.7479
      Avg Temperature84.7678.573.7
      Min Temperature7972.2365
      Precipitation (in)MaxAverageMinSum
      Precipitation4.190.43013.29
      Dew Point (°F)MaxAverageMin
      Dew Point75.6471.3565.88
      Wind (mph)MaxAverageMin
      Wind11620.489
      Gust Wind3823.2316
      Sea Level Pressure (in)MaxAverageMin
      Sea Level Pressure30.0229.929.75

      Daily Observations

      DateTemp High/LowDew Pt High/LowHumidityWindMax WindWind GustPressurePrecip.Condition
      6/1/2023 81 °F / 73 °F 73 °F / 68 °F 81 % 18 mph - 29.92 in 0 in
      6/2/2023 79 °F / 73 °F 72 °F / 67 °F 81 % 17 mph - 29.83 in 0 in
      6/3/2023 79 °F / 73 °F 73 °F / 70 °F 85 % 18 mph - 29.74 in 0 in
      6/4/2023 80 °F / 72 °F 73 °F / 69 °F 84 % 24 mph - 29.78 in 0 in
      6/5/2023 79 °F / 73 °F 70 °F / 64 °F 75 % 20 mph - 29.92 in 0.05 in
      6/6/2023 84 °F / 65 °F 70 °F / 62 °F 74 % 16 mph - 29.94 in 0 in
      6/7/2023 90 °F / 72 °F 72 °F / 66 °F 79 % 24 mph - 29.82 in 0.69 in
      6/8/2023 92 °F / 70 °F 72 °F / 67 °F 70 % 14 mph - 29.76 in 0 in
      6/9/2023 86 °F / 70 °F 76 °F / 69 °F 87 % 13 mph - 29.8 in 1.2 in
      6/10/2023 83 °F / 70 °F 75 °F / 69 °F 87 % 12 mph - 29.89 in 0 in
      6/11/2023 85 °F / 72 °F 75 °F / 70 °F 85 % 16 mph - 29.89 in 0.03 in
      6/12/2023 90 °F / 72 °F 73 °F / 70 °F 71 % 116 mph - 29.88 in 0 in
      6/13/2023 94 °F / 72 °F 75 °F / 69 °F 71 % 28 mph - 29.9 in 1.27 in
      6/14/2023 91 °F / 70 °F 78 °F / 66 °F 81 % 15 mph - 29.93 in 0.07 in
      6/15/2023 89 °F / 69 °F 73 °F / 66 °F 87 % 23 mph - 29.95 in 1.89 in
      6/16/2023 89 °F / 70 °F 76 °F / 66 °F 76 % 20 mph - 29.87 in 0.24 in
      6/17/2023 90 °F / 73 °F 73 °F / 67 °F 73 % 16 mph - 29.9 in 0 in
      6/18/2023 83 °F / 71 °F 75 °F / 69 °F 85 % 13 mph - 29.89 in 0 in
      6/19/2023 91 °F / 71 °F 76 °F / 66 °F 79 % 32 mph - 29.92 in 2.67 in
      6/20/2023 85 °F / 70 °F 75 °F / 68 °F 90 % 20 mph - 29.87 in 3.13 in
      6/21/2023 86 °F / 73 °F 74 °F / 65 °F 79 % 17 mph - 29.86 in 0.34 in
      6/22/2023 85 °F / 71 °F 76 °F / 67 °F 79 % 15 mph - 29.96 in 0.01 in
      6/23/2023 88 °F / 71 °F 75 °F / 68 °F 81 % 13 mph - 29.99 in 0.6 in
      6/24/2023 90 °F / 72 °F 75 °F / 68 °F 83 % 13 mph - 30 in 1.1 in
      6/25/2023 88 °F / 73 °F 74 °F / 69 °F 81 % 13 mph - 29.97 in 0 in
      6/26/2023 91 °F / 74 °F 74 °F / 68 °F 69 % 14 mph - 29.93 in 0 in
      6/27/2023 94 °F / 73 °F 77 °F / 69 °F 78 % 25 mph - 29.89 in 0 in
      6/28/2023 91 °F / 78 °F 79 °F / 72 °F 82 % 12 mph - 29.91 in 0 in
      6/29/2023 87 °F / 75 °F 77 °F / 70 °F 83 % 12 mph - 29.97 in 0 in
      6/30/2023 87 °F / 76 °F 77 °F / 72 °F 78 % 13 mph - 30.02 in 0 in
      essentialaccessibility.com
      We recognize our responsibility to use data and technology for good. We may use or share your data with our data vendors. Take control of your data.
      Glossary